TimeCDT,TemperatureF,Dew PointF,Humidity,Sea Level PressureIn,VisibilityMPH,Wind Direction,Wind SpeedMPH,Gust SpeedMPH,PrecipitationIn,Events,Conditions,WindDirDegrees,DateUTC
12:11 AM,71.6,69.8,94,30.03,2.0,Calm,Calm,-,N/A,,Mostly Cloudy,0,2013-06-20 05:11:00
12:18 AM,71.6,69.8,94,30.03,4.0,Calm,Calm,-,N/A,,Mostly Cloudy,0,2013-06-20 05:18:00
12:25 AM,71.6,69.8,94,30.03,1.8,Calm,Calm,-,N/A,,Overcast,0,2013-06-20 05:25:00
12:53 AM,72.0,70.0,93,30.03,1.0,Calm,Calm,-,N/A,,Mist,0,2013-06-20 05:53:00
12:59 AM,71.6,69.8,94,30.03,3.0,Calm,Calm,-,N/A,,Overcast,0,2013-06-20 05:59:00
1:07 AM,71.6,69.8,94,30.03,1.8,Calm,Calm,-,N/A,,Overcast,0,2013-06-20 06:07:00
1:18 AM,71.6,69.8,94,30.03,3.0,Calm,Calm,-,N/A,,Overcast,0,2013-06-20 06:18:00
1:24 AM,71.6,69.8,94,30.03,1.5,Calm,Calm,-,N/A,,Overcast,0,2013-06-20 06:24:00
1:37 AM,71.6,69.8,94,30.03,3.0,Calm,Calm,-,N/A,,Mostly Cloudy,0,2013-06-20 06:37:00
1:53 AM,71.1,69.1,93,30.03,5.0,Calm,Calm,-,N/A,,Partly Cloudy,0,2013-06-20 06:53:00
2:00 AM,71.6,69.8,94,30.03,1.8,Calm,Calm,-,N/A,,Partly Cloudy,0,2013-06-20 07:00:00
2:08 AM,71.6,69.8,94,30.03,3.0,Calm,Calm,-,N/A,,Clear,0,2013-06-20 07:08:00
2:18 AM,71.6,69.8,94,30.03,7.0,Calm,Calm,-,N/A,,Scattered Clouds,0,2013-06-20 07:18:00
2:28 AM,71.6,69.8,94,30.03,5.0,Calm,Calm,-,N/A,,Mostly Cloudy,0,2013-06-20 07:28:00
2:35 AM,71.6,69.8,94,30.02,3.0,Calm,Calm,-,N/A,,Mostly Cloudy,0,2013-06-20 07:35:00
2:53 AM,71.1,69.1,93,30.02,8.0,Calm,Calm,-,N/A,,Scattered Clouds,0,2013-06-20 07:53:00
3:29 AM,71.6,69.8,94,30.02,2.5,Calm,Calm,-,N/A,,Partly Cloudy,0,2013-06-20 08:29:00
3:37 AM,71.6,69.8,94,30.02,1.2,Calm,Calm,-,N/A,,Partly Cloudy,0,2013-06-20 08:37:00
3:53 AM,70.0,68.0,93,30.01,1.8,Calm,Calm,-,N/A,,Partly Cloudy,0,2013-06-20 08:53:00
4:01 AM,69.8,68.0,94,30.02,3.0,Calm,Calm,-,N/A,,Partly Cloudy,0,2013-06-20 09:01:00
4:39 AM,69.8,68.0,94,30.02,1.8,Calm,Calm,-,0.01,,Partly Cloudy,0,2013-06-20 09:39:00
4:44 AM,69.8,68.0,94,30.02,0.8,Calm,Calm,-,0.01,,Mist,0,2013-06-20 09:44:00
4:50 AM,69.8,68.0,94,30.02,1.2,Calm,Calm,-,0.01,,Scattered Clouds,0,2013-06-20 09:50:00
4:53 AM,70.0,68.0,93,30.02,2.5,Calm,Calm,-,0.01,,Partly Cloudy,0,2013-06-20 09:53:00
5:00 AM,69.8,68.0,94,30.03,3.0,Calm,Calm,-,N/A,,Partly Cloudy,0,2013-06-20 10:00:00
5:24 AM,69.8,66.2,88,30.03,1.8,Calm,Calm,-,N/A,,Clear,0,2013-06-20 10:24:00
5:34 AM,69.8,66.2,88,30.04,3.0,Calm,Calm,-,N/A,,Clear,0,2013-06-20 10:34:00
5:53 AM,70.0,68.0,93,30.04,7.0,Calm,Calm,-,N/A,,Partly Cloudy,0,2013-06-20 10:53:00
6:53 AM,71.1,69.1,93,30.06,10.0,Calm,Calm,-,N/A,,Clear,0,2013-06-20 11:53:00
7:53 AM,75.9,73.0,91,30.08,10.0,Calm,Calm,-,N/A,,Mostly Cloudy,0,2013-06-20 12:53:00
8:53 AM,81.0,75.0,82,30.09,10.0,Calm,Calm,-,N/A,,Clear,0,2013-06-20 13:53:00
9:53 AM,84.9,73.9,69,30.11,10.0,North,-9999.0,-,N/A,,Unknown,0,2013-06-20 14:53:00
10:53 AM,-9999,-9999,N/A,30.11,-9999.0,North,-9999.0,-,N/A,,Unknown,0,2013-06-20 15:53:00
11:53 AM,-9999,-9999,N/A,30.11,-9999.0,North,-9999.0,-,N/A,,Unknown,0,2013-06-20 16:53:00
12:53 PM,88.0,73.9,63,30.09,10.0,NW,5.8,-,N/A,,Partly Cloudy,320,2013-06-20 17:53:00
1:53 PM,90.0,73.0,57,30.08,10.0,Variable,3.5,-,N/A,,Mostly Cloudy,0,2013-06-20 18:53:00
2:53 PM,90.0,72.0,55,30.05,10.0,SSW,4.6,-,0.00,,Mostly Cloudy,210,2013-06-20 19:53:00
3:20 PM,91.4,71.6,52,30.06,10.0,Calm,Calm,-,N/A,Thunderstorm,Mostly Cloudy,0,2013-06-20 20:20:00
3:38 PM,91.4,71.6,52,30.05,10.0,Calm,Calm,-,N/A,,Scattered Clouds,0,2013-06-20 20:38:00
3:53 PM,89.1,75.9,65,30.05,10.0,ENE,5.8,-,N/A,,Scattered Clouds,70,2013-06-20 20:53:00
4:10 PM,87.8,75.2,66,30.05,10.0,ENE,5.8,-,N/A,Thunderstorm,Mostly Cloudy,60,2013-06-20 21:10:00
4:38 PM,82.4,78.8,89,30.05,7.0,NNE,3.5,-,0.02,Rain,Light Rain,30,2013-06-20 21:38:00
4:53 PM,82.9,78.1,85,30.05,10.0,Variable,3.5,-,0.02,,Scattered Clouds,0,2013-06-20 21:53:00
5:53 PM,88.0,75.9,67,30.04,10.0,Variable,4.6,-,0.01,,Clear,0,2013-06-20 22:53:00
6:53 PM,88.0,77.0,70,30.03,10.0,ENE,3.5,-,N/A,,Clear,70,2013-06-20 23:53:00
7:53 PM,82.9,78.1,85,30.04,10.0,Calm,Calm,-,N/A,,Clear,0,2013-06-21 00:53:00
8:53 PM,79.0,69.1,72,30.06,10.0,Calm,Calm,-,N/A,,Clear,0,2013-06-21 01:53:00
9:53 PM,75.0,71.1,87,30.06,10.0,Calm,Calm,-,N/A,,Clear,0,2013-06-21 02:53:00
10:53 PM,73.9,71.1,91,30.07,10.0,Calm,Calm,-,N/A,,Clear,0,2013-06-21 03:53:00
11:53 PM,73.0,70.0,90,30.08,10.0,Calm,Calm,-,N/A,,Clear,0,2013-06-21 04:53:00